Overview Statistics Trail Chart Weather Telemetry Raw packets
 

This is the latest recevied weather packets stored in our database for station/object FW0690. If no packets are shown the sender has not sent any weather packets the latest 10 day(s).

<< 3 4 5 6 7 8 9 >>
Time Temp. Humidity Pressure Rain* Wind** Luminosity Snow
1788530421 35° C 21% 1013.8 hPa - - 274 W/m² -
1788530061 34.44° C 21% 1013.9 hPa - - 274 W/m² -
1788529701 35.56° C 21% 1013.9 hPa - - 274 W/m² -
1788529341 34.44° C 21% 1013.9 hPa - - 274 W/m² -
1788528981 35° C 21% 1013.9 hPa - - 274 W/m² -
1788528621 35° C 22% 1014 hPa - - 274 W/m² -
1788528261 34.44° C 22% 1014 hPa - - 114 W/m² -
1788527901 33.33° C 23% 1014 hPa - - 106 W/m² -
1788527541 33.89° C 22% 1014 hPa - - 48 W/m² -
1788527181 34.44° C 23% 1014.1 hPa - - 171 W/m² -
1788526821 34.44° C 23% 1014.1 hPa - - 29 W/m² -
1788526461 33.89° C 23% 1014 hPa - - 23 W/m² -
1788526101 33.89° C 23% 1014.1 hPa - - 21 W/m² -
1788525741 33.33° C 23% 1014.1 hPa - - 22 W/m² -
1788525381 34.44° C 23% 1014.2 hPa - - 21 W/m² -
1788525021 34.44° C 23% 1014.3 hPa - - 22 W/m² -
1788524661 34.44° C 24% 1014.3 hPa - - 21 W/m² -
1788524301 33.89° C 24% 1014.4 hPa - - 22 W/m² -
1788523940 33.89° C 24% 1014.4 hPa - - 22 W/m² -
1788523606 34.44° C 24% 1014.6 hPa - - 42 W/m² -
1788523221 35° C 24% 1014.6 hPa - - 88 W/m² -
1788522861 35° C 24% 1014.5 hPa - - 27 W/m² -
1788522501 35° C 24% 1014.7 hPa - - 26 W/m² -
1788522142 34.44° C 25% 1014.8 hPa - - 27 W/m² -
1788521781 35° C 24% 1014.9 hPa - - 27 W/m² -

* Rain since midnight (hover to see other rain measurements)
** Current wind speed in m/s (hover to see current wind gust speed)